Regional Weather Roundup
Issued by NWS Upton, NY

Current Version | Previous Version | Text Only | Print | Product List | Glossary Off
Versions: 1 2 3 4 5 6 7 8 9 10 11 12 13 14 15 16 17 18 19 20 21 22 23 24 25 26 27 28 29 30 31 32 33 34 35 36 37 38 39 40 41 42 43 44 45 46 47 48 49 50

000
ASUS41 KOKX 190807
RWROKX

REGIONAL WEATHER ROUNDUP
NATIONAL WEATHER SERVICE NEW YORK NY
400 AM EDT SUN APR 19 2015

NOTE: "FAIR" INDICATES FEW OR NO CLOUDS BELOW 12,000 FEET WITH NO
SIGNIFICANT WEATHER AND/OR OBSTRUCTIONS TO VISIBILITY.

NYZ071-072-176-178-NJZ106-104-190900-
NEW YORK CITY METRO AREA


CITY           SKY/WX    TMP DP  RH WIND       PRES   REMARKS
CENTRAL PARK   CLEAR     57  19  22 NE12G17   30.17R
LAGUARDIA APRT PTCLDY    53  28  38 NE6       30.14R
KENNEDY INTL   MOCLDY    55  19  24 N7        30.15R
NEWARK/LIBERTY PTCLDY    56  22  26 N14       30.14R
BRNX BOT. GARD   N/A     54  23  30 NW2       30.15R
TETERBORO      CLEAR     55  21  26 NE3       30.14R
$$

NYZ177-179-078>081-190900-
LONG ISLAND NEW YORK

CITY           SKY/WX    TMP DP  RH WIND       PRES   REMARKS
FARMINGDALE    PTCLDY    53  23  31 NE7       30.14R
ISLIP          PTCLDY    50  32  50 CALM      30.13R
SHIRLEY        PTCLDY    44  33  65 CALM      30.15R
WESTHAMPTON    PTCLDY    44  37  76 NE6       30.15R
MONTAUK POINT    N/A     46  39  76 NE5       30.15R
$$

NYZ052-065-067-190900-
HUDSON VALLEY

CITY           SKY/WX    TMP DP  RH WIND       PRES   REMARKS
WHITE PLAINS   CLEAR     51  22  31 N7        30.14R
NEWBURGH       CLEAR     50  27  40 NE12      30.15R
MONTGOMERY     CLEAR     44  26  49 NE6       30.14R
POUGHKEEPSIE   CLEAR     48  26  42 NE5       30.15R
ALBANY         CLEAR     43  32  65 N7        30.22R
$$

NJZ001-105-106-008-010-013-015-019>022-104-190900-
NEW JERSEY

CITY           SKY/WX    TMP DP  RH WIND       PRES   REMARKS
NEWARK/LIBERTY PTCLDY    56  22  26 N14       30.14R
TETERBORO      CLEAR     55  21  26 NE3       30.14R
CALDWELL       CLEAR     53  21  28 NE5       30.15R
MORRISTOWN     PTCLDY    48  28  46 CALM      30.15R
SOMERVILLE     PTCLDY    47  30  51 CALM      30.12R
SUSSEX         PTCLDY    46  25  43 NE6       30.15R
ANDOVER          N/A     45  32  60 CALM      30.14R
TRENTON        PTCLDY    57  22  25 N5        30.12R
MILLVILLE      MOCLDY    58  34  40 NE7       30.09R
ATLANTIC CITY  PTCLDY    56  38  50 NE8       30.10R
WRIGHTSTOWN    PTCLDY    51  28  41 NE6       30.08R
TOMS RIVER     PTCLDY    45  37  76 NE3       30.12R
BELMAR         PTCLDY    57  25  28 NE12      30.13R
$$

PAZ047>061-062-071-190900-
EASTERN PENNSYLVANIA

CITY           SKY/WX    TMP DP  RH WIND       PRES   REMARKS
PHILADELPHIA   MOCLDY    62  22  21 NE16      30.10F
ALLENTOWN      MOCLDY    47  27  45 N3        30.14R
SCRANTON       PTCLDY    49  23  36 E5        30.14R
$$

CTZ002-004>006-009-010-012-RIZ004-006-007-MAZ004-011-015-190900-
SOUTHERN NEW ENGLAND
 IN CT

CITY           SKY/WX    TMP DP  RH WIND       PRES   REMARKS
BRADLEY INTL   CLEAR     45  28  51 N9        30.15R
HARTFORD       CLEAR     47  32  56 VRB6      30.15R
DANBURY        CLEAR     47  24  40 CALM      30.16R
WTRBRY/OXFORD  CLEAR     46  25  42 NE7       30.16R
BRIDGEPORT     PTCLDY    53  25  33 N7        30.14R
MERIDEN        CLEAR     48  28  46 N3        30.15R
NEW HAVEN      PTCLDY    49  26  41 CALM      30.14R
CHESTER        FAIR      50  30  46 N5        30.14R
GROTON         CLEAR     42  37  82 NE5       30.14R
WILLIMANTIC    CLEAR     47  30  51 N7        30.15R

 IN RI

CITY           SKY/WX    TMP DP  RH WIND       PRES   REMARKS
PROVIDENCE     CLEAR     47  33  58 N12       30.15R
BLOCK ISLAND   CLEAR     45  36  70 NE9       30.13R
WESTERLY       CLEAR     41  38  89 CALM      30.15R

 IN MA

CITY           SKY/WX    TMP DP  RH WIND       PRES   REMARKS
BOSTON         CLEAR     46  32  58 NW12      30.14R
WORCESTER      CLEAR     43  29  57 N12       30.14R
WESTFIELD      CLEAR     48  30  49 N9        30.17R
PROVINCETOWN   CLEAR     39  37  93 N7        30.12S WCI  34
NANTUCKET      CLEAR     42  38  85 N9        30.11R
$$

ANZ330-335-338-340-345-350-353-355-190900-
COASTAL MARINE OBSERVATIONS


STATION/POSITION TIME  SKY/WX   TEMP    WIND        PRES    VSBY  WAVE
                                AIR SEA DIR/SP/G                  HT/PER
                 (UTC)          (F)     (DEG/KT/KT) (MB)    (MI)  (FT/S)
NY HARB ENTRANCE 0750            51 48   60/ 10/ 14 1020.1          2/ 7
4S FIRE IS       0703               45                N/A           3/ 7
20S FIRE ISLAND  0650               44              1019.9          3/14
23SW MTP         NOT AVBL
HUDSON CANYON    NOT AVBL
EXECUTION ROCKS  NOT AVBL
WESTERN LI SOUND NOT AVBL
CENTRAL LI SOUND NOT AVBL
EASTERN LI SOUND 0700            45      CALM  /  2   N/A
ROBBINS REEF     0700            58      10/ 14/ 17 1018.7
$$


>>>>>>>>>>>>>>>>>>>>>>>>>>>> KEY <<<<<<<<<<<<<<<<<<<<<<<<<<<
>                                                          <
>     SKY/WX - SKY CONDITION/PRESENT WEATHER               <
>     TMP    - TEMPERATURE IN FAHRENHEIT                   <
>     DP     - DEWPOINT IN FAHRENHEIT                      <
>     RH     - RELATIVE HUMIDITY IN PERCENT                <
>     WIND   - DIRECTION AND SPEED IN MPH                  <
>     PRES   - MEAN SEA LEVEL PRESSURE IN INCHES OF HG     <
>     WCI    - WIND CHILL INDEX                            <
>     VSB    - VISIBILITY IN MILES                         <
>     HX     - HEAT INDEX                                  <
>     TC     - TEMPERATURE IN CELSIUS                      <
>     VRB    - VARIABLE WIND DIRECTION                     <
>                                                          <
>>>>>>>>>>>>>>>>>>>>>>>>>>>> KEY <<<<<<<<<<<<<<<<<<<<<<<<<<<




USA.gov is the U.S. government's official web portal to all federal, state and local government web resources and services.